Weather History for KTRK - April, 2014

Change the Weather History Date:

Friday, April 4, 2014

  Actual Average Record
Temperature  
Mean Temperature 34 °F -  
Max Temperature 46 °F 51 °F 72 °F (2002)
Min Temperature 23 °F 24 °F 3 °F (1999)
Degree Days  
Heating Degree Days 30    
Moisture  
Dew Point 24 °F    
Average Humidity 70    
Maximum Humidity 100    
Minimum Humidity 34    
Precipitation  
Precipitation 0.00 in - - ()
Sea Level Pressure  
Sea Level Pressure 29.96 in    
Wind  
Wind Speed 5 mph (SSW)    
Max Wind Speed 16 mph    
Max Gust Speed 22 mph    
Visibility 10 miles    
Events      
Averages and records for this station are not official NWS values.
T = Trace of Precipitation, MM = Missing Value Source: NWS Daily Summary

Daily Weather History Graph

Daily Weather History Graph

Search for Another Location

Airport or City:

Trip Planner

Search our weather history database for the weather conditions in past years. The results will help you decide how hot, cold, wet, or windy it might be!

Date:

Astronomy

Apr. 04, 2014 Rise Set
Actual Time 6:40 AM PDT 7:27 PM PDT
Civil Twilight 6:12 AM PDT 7:54 PM PDT
Nautical Twilight 5:40 AM PDT 8:26 PM PDT
Astronomical Twilight 5:07 AM PDT 9:00 PM PDT
Moon 10:02 AM PDT (4/4) No Moon Set
Length of Visible Light 13h 41m
Length of Day
12h 47m
Waxing Crescent, 26% of the Moon is Illuminated
Apr 4
Waxing Crescent
Apr 7
First Quarter
Apr 15
Full
Apr 22
Last Quarter
Apr 28
New

Hourly Weather History & Observations

Time (PDT) Temp. Windchill Dew Point Humidity Pressure Visibility Wind Dir Wind Speed Gust Speed Precip Events Conditions
12:15 AM 32.0 °F - 28.4 °F 87% 30.01 in 10.0 mi Calm Calm - N/A   Scattered Clouds
12:35 AM 32.0 °F - 26.6 °F 80% 30.00 in 10.0 mi Calm Calm - N/A   Mostly Cloudy
12:55 AM 32.0 °F 28.7 °F 26.6 °F 80% 30.00 in 10.0 mi SSW 3.5 mph - N/A   Mostly Cloudy
1:15 AM 32.0 °F 28.7 °F 26.6 °F 80% 29.99 in 10.0 mi South 3.5 mph - N/A   Scattered Clouds
1:35 AM 32.0 °F 26.4 °F 24.8 °F 75% 29.99 in 10.0 mi SW 5.8 mph - N/A   Scattered Clouds
1:55 AM 32.0 °F 25.6 °F 23.0 °F 69% 29.99 in 10.0 mi SW 6.9 mph - N/A   Scattered Clouds
2:15 AM 32.0 °F 27.5 °F 23.0 °F 69% 29.98 in 10.0 mi SSW 4.6 mph - N/A   Clear
2:35 AM 32.0 °F 27.5 °F 23.0 °F 69% 29.98 in 10.0 mi South 4.6 mph - N/A   Scattered Clouds
2:55 AM 32.0 °F 26.4 °F 23.0 °F 69% 29.98 in 10.0 mi South 5.8 mph - N/A   Overcast
3:15 AM 32.0 °F 26.4 °F 23.0 °F 69% 29.97 in 10.0 mi South 5.8 mph - N/A   Overcast
3:35 AM 32.0 °F 25.6 °F 24.8 °F 75% 29.97 in 10.0 mi South 6.9 mph - N/A   Overcast
3:55 AM 33.8 °F 28.6 °F 24.8 °F 70% 29.97 in 10.0 mi SSE 5.8 mph - N/A   Overcast
4:15 AM 33.8 °F 29.6 °F 24.8 °F 70% 29.96 in 10.0 mi South 4.6 mph - N/A   Overcast
4:35 AM 33.8 °F 27.7 °F 23.0 °F 65% 29.96 in 10.0 mi South 6.9 mph - N/A   Overcast
4:55 AM 32.0 °F 27.5 °F 23.0 °F 69% 29.95 in 10.0 mi South 4.6 mph - N/A   Overcast
5:15 AM 32.0 °F 27.5 °F 23.0 °F 69% 29.95 in 10.0 mi SSE 4.6 mph - N/A   Mostly Cloudy
5:35 AM 32.0 °F 27.5 °F 24.8 °F 75% 29.95 in 10.0 mi South 4.6 mph - N/A   Mostly Cloudy
5:55 AM 32.0 °F 26.4 °F 23.0 °F 69% 29.94 in 10.0 mi South 5.8 mph - N/A   Mostly Cloudy
6:15 AM 32.0 °F 24.8 °F 23.0 °F 69% 29.95 in 10.0 mi South 8.1 mph - N/A   Mostly Cloudy
6:35 AM 32.0 °F 24.2 °F 21.2 °F 64% 29.94 in 10.0 mi SSW 9.2 mph - N/A   Scattered Clouds
6:45 AM 32.0 °F 25.6 °F 21.2 °F 64% 29.94 in 10.0 mi SW 6.9 mph - N/A   Scattered Clouds
7:55 AM 35.6 °F - 21.2 °F 56% 29.95 in 10.0 mi Calm Calm - N/A   Scattered Clouds
8:50 AM 39.2 °F 33.0 °F 19.4 °F 45% 29.95 in 10.0 mi SSE 9.2 mph - N/A   Scattered Clouds
9:50 AM 41.0 °F 34.7 °F 15.8 °F 36% 29.95 in 10.0 mi SSW 10.4 mph - N/A   Scattered Clouds
10:45 AM 44.6 °F 39.7 °F 17.6 °F 34% 29.94 in 10.0 mi SE 9.2 mph 17.3 mph N/A   Scattered Clouds
11:45 AM 44.6 °F 40.2 °F 17.6 °F 34% 29.94 in 10.0 mi South 8.1 mph 20.7 mph N/A   Mostly Cloudy
12:50 PM 46.4 °F 39.8 °F 19.4 °F 34% 29.93 in 10.0 mi SSW 16.1 mph 19.6 mph N/A   Mostly Cloudy
1:50 PM 46.4 °F 40.4 °F 21.2 °F 37% 29.92 in 10.0 mi West 13.8 mph 19.6 mph N/A   Mostly Cloudy
2:45 PM 41.0 °F 34.3 °F 26.6 °F 57% 29.92 in 10.0 mi SW 11.5 mph 18.4 mph N/A   Mostly Cloudy
3:50 PM 44.6 °F 37.8 °F 26.6 °F 49% 29.92 in 10.0 mi WSW 15.0 mph 20.7 mph N/A   Mostly Cloudy
4:55 PM 39.2 °F 30.8 °F 28.4 °F 65% 29.92 in 10.0 mi West 15.0 mph 21.9 mph N/A   Mostly Cloudy
5:45 PM 39.2 °F 32.0 °F 28.4 °F 65% 29.72 in 10.0 mi West 11.5 mph - N/A   Mostly Cloudy
6:15 PM 37.4 °F 29.3 °F 26.6 °F 65% 29.93 in 10.0 mi West 12.7 mph - N/A   Scattered Clouds
6:35 PM 37.4 °F 32.1 °F 26.6 °F 65% 29.94 in 10.0 mi West 6.9 mph 17.3 mph N/A   Mostly Cloudy
6:55 PM 35.6 °F 29.2 °F 28.4 °F 75% 29.94 in 10.0 mi West 8.1 mph - N/A   Overcast
7:15 PM 33.8 °F 28.6 °F 26.6 °F 75% 29.95 in 10.0 mi WNW 5.8 mph - N/A   Scattered Clouds
7:35 PM 32.0 °F 26.4 °F 26.6 °F 80% 29.96 in 10.0 mi West 5.8 mph - N/A   Scattered Clouds
7:55 PM 32.0 °F 26.4 °F 26.6 °F 80% 29.96 in 10.0 mi WNW 5.8 mph - N/A   Mostly Cloudy
8:15 PM 32.0 °F 27.5 °F 24.8 °F 75% 29.97 in 10.0 mi NNW 4.6 mph - N/A   Scattered Clouds
8:35 PM 28.4 °F 24.6 °F 23.0 °F 80% 29.98 in 10.0 mi ESE 3.5 mph - N/A   Clear
8:55 PM 30.2 °F - 24.8 °F 80% 29.99 in 10.0 mi Calm Calm - N/A   Clear
9:15 PM 30.2 °F - 24.8 °F 80% 29.99 in 10.0 mi Calm Calm - N/A   Scattered Clouds
9:35 PM 30.2 °F - 24.8 °F 80% 30.00 in 10.0 mi Calm Calm - N/A   Clear
9:55 PM 26.6 °F - 23.0 °F 86% 30.00 in 10.0 mi Calm Calm - N/A   Clear
10:15 PM 26.6 °F - 23.0 °F 86% 29.99 in 10.0 mi Calm Calm - N/A   Clear
10:35 PM 26.6 °F - 23.0 °F 86% 29.99 in 10.0 mi Calm Calm - N/A   Clear
10:55 PM 28.4 °F - 24.8 °F 86% 30.00 in 10.0 mi Calm Calm - N/A   Clear
11:15 PM 26.6 °F 22.6 °F 23.0 °F 86% 30.00 in 10.0 mi East 3.5 mph - N/A   Clear
11:35 PM 23.0 °F 15.8 °F 21.2 °F 93% 30.00 in 10.0 mi ESE 5.8 mph - N/A   Clear
11:55 PM 23.0 °F - 23.0 °F 100% 30.00 in 10.0 mi Calm Calm - N/A   Scattered Clouds